KLM661 EHAM-KLAX

Flight info

Callsign KLM661
Flight time N/A
Altitude 370000
Route WISPA4X BERGI L602 NALAX L46 GETNO DCT NIBOG DCT RESNO/M083F370 DCT 56N020W 57N030W 57N040W 56N050W DCT JANJO/N0473F370 DCT DENSO DCT AGLOL DCT MERNU DCT XEXUL DCT BLUOX DCT RAP J158 DDY J107 NORRA J100 LAS Q70 HAILO DCT CRCUS DCT PFILA DCT SALWA DCT WLNUT DCT HURLR DCT FNESE DCT FAYZE DCT JULLI DCT IFIJU DCT SUTIE DCT
Aircraft B77L/H-SDE1E2E3FGHIJ2J3J4J5M1RWXYZ/LB1D1

Departure

Time N/A
Airport Amsterdam Airport Schiphol (EHAM)

Arrival

Time 2026-04-26 17:52
Airport Los Angeles International Airport (KLAX)
Time Latitude Longitude Altitude Speed Heading
2026-04-26 15:37 42.69719 -107.01965 36808 ft 463 kts 233°
2026-04-26 15:37 42.65913 -107.09047 36785 ft 464 kts 233°
2026-04-26 15:38 42.62103 -107.16122 36783 ft 464 kts 233°
2026-04-26 15:38 42.58285 -107.23194 36774 ft 465 kts 233°
2026-04-26 15:39 42.54460 -107.30262 36764 ft 465 kts 233°
2026-04-26 15:39 42.51278 -107.36130 36762 ft 465 kts 233°
2026-04-26 15:40 42.46792 -107.44382 36748 ft 466 kts 233°
2026-04-26 15:40 42.42948 -107.51434 36753 ft 465 kts 233°
2026-04-26 15:41 42.39101 -107.58477 36757 ft 465 kts 233°
2026-04-26 15:41 42.35274 -107.65466 36748 ft 465 kts 233°
2026-04-26 15:42 42.31418 -107.72492 36758 ft 465 kts 233°
2026-04-26 15:42 42.27554 -107.79516 36734 ft 466 kts 233°
2026-04-26 15:43 42.23682 -107.86538 36734 ft 466 kts 233°
2026-04-26 15:44 42.17871 -107.97045 36722 ft 466 kts 233°
2026-04-26 15:44 42.12054 -108.07527 36713 ft 465 kts 233°
2026-04-26 15:45 42.06230 -108.17985 36704 ft 465 kts 233°
2026-04-26 15:46 42.00394 -108.28430 36690 ft 466 kts 233°
2026-04-26 15:46 41.97151 -108.34218 36686 ft 466 kts 233°
2026-04-26 15:47 41.90630 -108.45822 36671 ft 466 kts 232°
2026-04-26 15:48 41.86745 -108.52714 36662 ft 466 kts 232°
2026-04-26 15:48 41.82838 -108.59631 36657 ft 465 kts 232°
2026-04-26 15:49 41.78926 -108.66541 36650 ft 465 kts 232°
2026-04-26 15:49 41.75010 -108.73442 36664 ft 466 kts 232°
2026-04-26 15:50 41.71086 -108.80342 36684 ft 466 kts 232°
2026-04-26 15:50 41.67154 -108.87239 36710 ft 466 kts 232°
2026-04-26 15:51 41.63217 -108.94134 36736 ft 467 kts 232°
2026-04-26 15:51 41.59243 -109.01001 36748 ft 467 kts 230°
2026-04-26 15:52 41.54741 -109.07253 36729 ft 467 kts 225°
2026-04-26 15:52 41.50093 -109.13328 36641 ft 468 kts 225°
2026-04-26 15:52 41.48561 -109.15334 36342 ft 463 kts 225°
2026-04-26 15:53 41.45527 -109.19316 35798 ft 452 kts 225°
2026-04-26 15:53 41.43310 -109.22233 35407 ft 444 kts 225°
2026-04-26 15:53 41.41131 -109.25101 35017 ft 437 kts 224°
2026-04-26 15:53 41.38987 -109.27923 34634 ft 430 kts 224°
2026-04-26 15:54 41.36874 -109.30703 34264 ft 424 kts 224°
2026-04-26 15:54 41.34792 -109.33438 33883 ft 418 kts 224°
2026-04-26 15:54 41.32735 -109.36138 33501 ft 413 kts 224°
2026-04-26 15:54 41.30704 -109.38801 33086 ft 407 kts 224°
2026-04-26 15:55 41.28697 -109.41430 32673 ft 402 kts 224°
2026-04-26 15:55 41.26713 -109.44027 32260 ft 398 kts 223°
2026-04-26 15:55 41.24754 -109.46588 31858 ft 393 kts 223°
2026-04-26 15:55 41.22815 -109.49121 31464 ft 389 kts 223°
2026-04-26 15:56 41.20924 -109.51588 31086 ft 384 kts 223°
2026-04-26 15:56 41.19027 -109.54063 30693 ft 380 kts 223°
2026-04-26 15:56 41.17150 -109.56509 30315 ft 376 kts 223°
2026-04-26 15:56 41.15293 -109.58926 29944 ft 372 kts 222°
2026-04-26 15:57 41.13455 -109.61317 29621 ft 367 kts 222°
2026-04-26 15:57 41.09854 -109.65994 29610 ft 362 kts 222°
2026-04-26 15:58 41.06245 -109.70670 29608 ft 364 kts 222°
2026-04-26 15:58 41.02620 -109.75363 29612 ft 365 kts 222°
2026-04-26 15:59 40.98990 -109.80055 29617 ft 365 kts 221°
2026-04-26 15:59 40.95353 -109.84750 29619 ft 365 kts 221°
2026-04-26 16:00 40.91710 -109.89443 29619 ft 366 kts 221°
2026-04-26 16:00 40.88064 -109.94133 29624 ft 366 kts 221°
2026-04-26 16:01 40.84414 -109.98821 29635 ft 366 kts 221°
2026-04-26 16:01 40.80763 -110.03502 29644 ft 365 kts 221°
2026-04-26 16:02 40.77111 -110.08178 29645 ft 366 kts 221°
2026-04-26 16:02 40.73454 -110.12851 29656 ft 366 kts 221°
2026-04-26 16:03 40.69794 -110.17521 29659 ft 367 kts 221°
2026-04-26 16:03 40.66121 -110.22200 29653 ft 367 kts 221°
2026-04-26 16:04 40.62457 -110.26862 29678 ft 366 kts 221°
2026-04-26 16:04 40.58810 -110.31492 29670 ft 367 kts 221°
2026-04-26 16:05 40.55127 -110.36161 29683 ft 368 kts 221°
2026-04-26 16:05 40.51374 -110.40908 29690 ft 383 kts 221°
2026-04-26 16:06 40.47507 -110.45793 29678 ft 386 kts 221°
2026-04-26 16:06 40.45587 -110.48219 29825 ft 379 kts 221°
2026-04-26 16:06 40.43706 -110.50595 30311 ft 372 kts 222°
2026-04-26 16:06 40.41849 -110.52938 30784 ft 368 kts 222°
2026-04-26 16:07 40.40013 -110.55249 31249 ft 364 kts 223°
2026-04-26 16:07 40.38160 -110.57579 31180 ft 375 kts 223°
2026-04-26 16:07 40.36252 -110.59976 31176 ft 384 kts 223°
2026-04-26 16:08 40.32301 -110.64932 31144 ft 402 kts 223°
2026-04-26 16:08 40.28176 -110.70101 31138 ft 418 kts 223°
2026-04-26 16:09 40.23952 -110.75386 31121 ft 421 kts 223°
2026-04-26 16:09 40.19711 -110.80685 31111 ft 422 kts 223°
2026-04-26 16:10 40.15460 -110.85984 31108 ft 422 kts 223°
2026-04-26 16:10 40.11205 -110.91278 30808 ft 424 kts 223°
2026-04-26 16:10 40.09069 -110.93932 30496 ft 423 kts 223°
2026-04-26 16:11 40.06945 -110.96571 30202 ft 420 kts 223°
2026-04-26 16:11 40.04839 -110.99183 29898 ft 416 kts 223°
2026-04-26 16:11 40.02750 -111.01771 29723 ft 411 kts 222°
2026-04-26 16:12 39.98607 -111.06896 29673 ft 412 kts 223°
2026-04-26 16:12 39.92326 -111.14648 29647 ft 418 kts 223°
2026-04-26 16:13 39.88109 -111.19845 29659 ft 417 kts 223°
2026-04-26 16:13 39.83896 -111.25027 29650 ft 416 kts 223°
2026-04-26 16:14 39.79689 -111.30191 29653 ft 415 kts 223°
2026-04-26 16:15 39.73396 -111.37899 29656 ft 414 kts 223°
2026-04-26 16:15 39.69209 -111.43017 29653 ft 413 kts 223°
2026-04-26 16:16 39.62931 -111.50675 29655 ft 413 kts 223°
2026-04-26 16:16 39.58740 -111.55775 29654 ft 413 kts 223°
2026-04-26 16:17 39.54551 -111.60864 29652 ft 413 kts 223°
2026-04-26 16:17 39.50363 -111.65942 29642 ft 412 kts 223°
2026-04-26 16:18 39.44793 -111.72683 29657 ft 411 kts 223°
2026-04-26 16:19 39.38518 -111.80260 29643 ft 411 kts 223°
2026-04-26 16:20 39.32243 -111.87817 29639 ft 411 kts 223°
2026-04-26 16:20 39.25960 -111.95365 29642 ft 411 kts 223°
2026-04-26 16:21 39.21769 -112.00388 29637 ft 411 kts 223°
2026-04-26 16:21 39.17573 -112.05413 29655 ft 412 kts 223°
2026-04-26 16:22 39.13368 -112.10435 29659 ft 412 kts 223°
2026-04-26 16:22 39.09167 -112.15438 29694 ft 412 kts 223°
2026-04-26 16:23 39.04977 -112.20419 29683 ft 403 kts 224°
2026-04-26 16:23 39.00800 -112.25380 29733 ft 414 kts 224°
2026-04-26 16:24 38.96577 -112.30386 29723 ft 412 kts 224°
2026-04-26 16:24 38.92399 -112.35331 29731 ft 410 kts 224°
2026-04-26 16:25 38.88178 -112.40319 29735 ft 409 kts 224°
2026-04-26 16:25 38.83999 -112.45248 29720 ft 408 kts 224°
2026-04-26 16:26 38.79853 -112.50132 29693 ft 407 kts 224°
2026-04-26 16:26 38.75678 -112.55040 29676 ft 407 kts 224°
2026-04-26 16:27 38.71503 -112.59941 29649 ft 407 kts 224°
2026-04-26 16:27 38.67329 -112.64833 29629 ft 407 kts 224°
2026-04-26 16:28 38.63148 -112.69726 29648 ft 408 kts 224°
2026-04-26 16:28 38.58962 -112.74616 29678 ft 408 kts 224°
2026-04-26 16:29 38.54767 -112.79507 29693 ft 408 kts 224°
2026-04-26 16:29 38.50569 -112.84396 29724 ft 409 kts 224°
2026-04-26 16:30 38.46367 -112.89280 29741 ft 408 kts 224°
2026-04-26 16:30 38.42181 -112.94139 29741 ft 406 kts 224°
2026-04-26 16:31 38.38004 -112.98978 29740 ft 405 kts 224°
2026-04-26 16:31 38.33554 -113.03376 29746 ft 406 kts 215°
2026-04-26 16:32 38.31188 -113.05280 29593 ft 410 kts 215°
2026-04-26 16:32 38.29555 -113.06595 29293 ft 413 kts 215°
2026-04-26 16:32 38.26356 -113.09176 28701 ft 409 kts 215°
2026-04-26 16:32 38.23968 -113.11108 28275 ft 404 kts 216°
2026-04-26 16:33 38.21613 -113.13016 27835 ft 399 kts 216°
2026-04-26 16:33 38.19289 -113.14903 27436 ft 394 kts 216°
2026-04-26 16:33 38.16991 -113.16768 27036 ft 390 kts 216°
2026-04-26 16:33 38.14718 -113.18614 26634 ft 386 kts 216°
2026-04-26 16:34 38.12463 -113.20444 26226 ft 382 kts 216°
2026-04-26 16:34 38.10231 -113.22253 25838 ft 379 kts 216°
2026-04-26 16:34 38.08021 -113.24044 25453 ft 376 kts 216°
2026-04-26 16:34 38.05823 -113.25824 25089 ft 375 kts 216°
2026-04-26 16:35 38.03625 -113.27603 24740 ft 375 kts 216°
2026-04-26 16:35 38.01411 -113.29395 24685 ft 380 kts 216°
2026-04-26 16:35 37.99175 -113.31201 24675 ft 381 kts 216°
2026-04-26 16:35 37.96944 -113.33001 24670 ft 379 kts 216°
2026-04-26 16:36 37.94723 -113.34793 24669 ft 377 kts 216°
2026-04-26 16:36 37.92512 -113.36575 24680 ft 377 kts 216°
2026-04-26 16:36 37.90302 -113.38354 24683 ft 376 kts 216°
2026-04-26 16:36 37.88093 -113.40126 24693 ft 376 kts 216°
2026-04-26 16:37 37.85880 -113.41891 24690 ft 376 kts 216°
2026-04-26 16:37 37.83664 -113.43655 24699 ft 376 kts 216°
2026-04-26 16:37 37.81450 -113.45417 24699 ft 377 kts 216°
2026-04-26 16:37 37.79979 -113.46587 24702 ft 377 kts 216°
2026-04-26 16:38 37.77011 -113.48947 24702 ft 377 kts 216°
2026-04-26 16:38 37.74788 -113.50715 24711 ft 378 kts 216°
2026-04-26 16:38 37.72560 -113.52485 24706 ft 379 kts 216°
2026-04-26 16:38 37.70324 -113.54260 24695 ft 380 kts 216°
2026-04-26 16:39 37.68088 -113.56034 24693 ft 380 kts 216°
2026-04-26 16:39 37.65852 -113.57806 24705 ft 380 kts 216°
2026-04-26 16:39 37.63615 -113.59579 24710 ft 380 kts 216°
2026-04-26 16:39 37.61377 -113.61351 24709 ft 380 kts 216°
2026-04-26 16:40 37.59138 -113.63122 24713 ft 380 kts 216°
2026-04-26 16:40 37.56900 -113.64891 24716 ft 379 kts 216°
2026-04-26 16:40 37.54665 -113.66657 24723 ft 379 kts 216°
2026-04-26 16:40 37.52431 -113.68420 24716 ft 379 kts 216°
2026-04-26 16:41 37.50229 -113.70158 24726 ft 379 kts 216°
2026-04-26 16:41 37.47996 -113.71919 24719 ft 378 kts 216°
2026-04-26 16:41 37.45766 -113.73676 24723 ft 378 kts 216°
2026-04-26 16:41 37.43537 -113.75431 24717 ft 378 kts 216°
2026-04-26 16:42 37.41307 -113.77184 24730 ft 378 kts 216°
2026-04-26 16:42 37.39081 -113.78934 24722 ft 377 kts 216°
2026-04-26 16:42 37.36854 -113.80683 24735 ft 377 kts 216°
2026-04-26 16:42 37.34631 -113.82429 24724 ft 377 kts 216°
2026-04-26 16:43 37.32403 -113.84177 24732 ft 377 kts 216°
2026-04-26 16:43 37.30176 -113.85922 24729 ft 378 kts 215°
2026-04-26 16:43 37.27946 -113.87670 24738 ft 378 kts 215°
2026-04-26 16:43 37.25714 -113.89417 24729 ft 378 kts 215°
2026-04-26 16:44 37.23478 -113.91166 24726 ft 379 kts 215°
2026-04-26 16:44 37.21243 -113.92913 24730 ft 379 kts 215°
2026-04-26 16:44 37.19003 -113.94663 24728 ft 379 kts 215°
2026-04-26 16:44 37.16763 -113.96412 24711 ft 380 kts 215°
2026-04-26 16:45 37.14520 -113.98162 24717 ft 380 kts 215°
2026-04-26 16:45 37.12278 -113.99909 24719 ft 379 kts 215°
2026-04-26 16:45 37.10038 -114.01654 24719 ft 379 kts 215°
2026-04-26 16:45 37.07797 -114.03398 24709 ft 379 kts 215°
2026-04-26 16:46 37.05560 -114.05138 24704 ft 378 kts 215°
2026-04-26 16:46 37.03327 -114.06873 24708 ft 378 kts 215°
2026-04-26 16:46 37.01097 -114.08606 24707 ft 377 kts 215°
2026-04-26 16:46 36.98870 -114.10334 24703 ft 377 kts 215°
2026-04-26 16:47 36.96643 -114.12062 24705 ft 376 kts 215°
2026-04-26 16:47 36.94418 -114.13787 24707 ft 376 kts 215°
2026-04-26 16:47 36.92194 -114.15510 24708 ft 376 kts 215°
2026-04-26 16:47 36.89973 -114.17230 24705 ft 376 kts 215°
2026-04-26 16:48 36.87748 -114.18951 24709 ft 376 kts 215°
2026-04-26 16:48 36.85524 -114.20672 24711 ft 376 kts 215°
2026-04-26 16:48 36.83297 -114.22393 24709 ft 377 kts 215°
2026-04-26 16:48 36.81069 -114.24113 24701 ft 377 kts 215°
2026-04-26 16:49 36.78869 -114.25809 24706 ft 377 kts 215°
2026-04-26 16:49 36.76706 -114.27632 24716 ft 374 kts 220°
2026-04-26 16:49 36.74682 -114.29733 24707 ft 373 kts 225°
2026-04-26 16:49 36.72865 -114.32027 24706 ft 371 kts 229°
2026-04-26 16:50 36.71117 -114.34341 24708 ft 372 kts 229°
2026-04-26 16:50 36.69349 -114.36688 24710 ft 372 kts 229°
2026-04-26 16:50 36.67578 -114.39036 24719 ft 372 kts 229°
2026-04-26 16:50 36.65802 -114.41384 24708 ft 372 kts 229°
2026-04-26 16:51 36.64026 -114.43726 24711 ft 372 kts 229°
2026-04-26 16:51 36.62246 -114.46067 24710 ft 372 kts 229°
2026-04-26 16:51 36.60463 -114.48410 24707 ft 372 kts 229°
2026-04-26 16:51 36.58682 -114.50747 24688 ft 372 kts 229°
2026-04-26 16:52 36.56903 -114.53080 24707 ft 372 kts 229°
2026-04-26 16:52 36.55723 -114.54627 24704 ft 372 kts 229°
2026-04-26 16:52 36.53343 -114.57744 24706 ft 371 kts 229°
2026-04-26 16:52 36.51566 -114.60068 24698 ft 371 kts 229°
2026-04-26 16:53 36.49788 -114.62392 24708 ft 371 kts 229°
2026-04-26 16:53 36.48011 -114.64716 24700 ft 371 kts 229°
2026-04-26 16:53 36.46234 -114.67035 24702 ft 370 kts 229°
2026-04-26 16:53 36.44457 -114.69353 24693 ft 370 kts 229°
2026-04-26 16:54 36.42685 -114.71665 24701 ft 370 kts 229°
2026-04-26 16:54 36.40914 -114.73973 24709 ft 369 kts 229°
2026-04-26 16:54 36.39142 -114.76280 24717 ft 369 kts 229°
2026-04-26 16:54 36.37373 -114.78581 24716 ft 368 kts 229°
2026-04-26 16:55 36.35604 -114.80880 24722 ft 368 kts 229°
2026-04-26 16:55 36.33827 -114.83164 24726 ft 368 kts 228°
2026-04-26 16:55 36.32041 -114.85442 24737 ft 368 kts 228°
2026-04-26 16:55 36.30254 -114.87717 24745 ft 369 kts 228°
2026-04-26 16:56 36.26674 -114.92277 24748 ft 369 kts 228°
2026-04-26 16:56 36.24882 -114.94558 24748 ft 369 kts 228°
2026-04-26 16:56 36.23093 -114.96835 24737 ft 369 kts 228°
2026-04-26 16:57 36.21304 -114.99111 24750 ft 368 kts 228°
2026-04-26 16:57 36.19517 -115.01385 24743 ft 369 kts 228°
2026-04-26 16:57 36.15940 -115.05930 24747 ft 368 kts 228°
2026-04-26 16:58 36.14148 -115.08206 24672 ft 371 kts 228°
2026-04-26 16:58 36.13564 -115.08948 24542 ft 372 kts 228°
2026-04-26 16:58 36.08772 -115.15053 23552 ft 366 kts 230°
2026-04-26 16:59 36.07159 -115.17495 22906 ft 367 kts 236°
2026-04-26 16:59 36.04321 -115.22758 21616 ft 369 kts 238°
2026-04-26 17:00 36.01500 -115.27994 20172 ft 359 kts 238°
2026-04-26 17:00 35.98846 -115.32892 18727 ft 332 kts 238°
2026-04-26 17:00 35.97583 -115.35219 17984 ft 321 kts 238°
2026-04-26 17:01 35.96361 -115.37469 17211 ft 310 kts 237°
2026-04-26 17:01 35.95192 -115.39622 16752 ft 291 kts 237°
2026-04-26 17:01 35.94112 -115.41606 16510 ft 269 kts 237°
2026-04-26 17:01 35.93049 -115.43562 15788 ft 282 kts 237°
2026-04-26 17:02 35.91948 -115.45589 15307 ft 283 kts 237°
2026-04-26 17:02 35.90867 -115.47575 15099 ft 274 kts 237°
2026-04-26 17:02 35.89820 -115.49494 14884 ft 266 kts 237°
2026-04-26 17:02 35.88795 -115.51377 14859 ft 263 kts 237°
2026-04-26 17:03 35.87770 -115.53256 14851 ft 264 kts 237°
2026-04-26 17:03 35.86742 -115.55140 14846 ft 265 kts 237°
2026-04-26 17:03 35.85712 -115.57027 14849 ft 265 kts 237°
2026-04-26 17:03 35.84683 -115.58912 14834 ft 265 kts 237°
2026-04-26 17:04 35.83653 -115.60795 14850 ft 265 kts 237°
2026-04-26 17:04 35.82623 -115.62679 14857 ft 266 kts 237°
2026-04-26 17:04 35.81589 -115.64567 14852 ft 266 kts 237°
2026-04-26 17:04 35.80554 -115.66456 14839 ft 266 kts 237°
2026-04-26 17:05 35.79525 -115.68335 14842 ft 264 kts 237°
2026-04-26 17:05 35.78503 -115.70200 14847 ft 262 kts 237°
2026-04-26 17:05 35.77487 -115.72053 14834 ft 260 kts 237°
2026-04-26 17:05 35.76480 -115.73889 14845 ft 258 kts 237°
2026-04-26 17:06 35.75476 -115.75715 14861 ft 258 kts 237°
2026-04-26 17:06 35.74463 -115.77561 14855 ft 263 kts 237°
2026-04-26 17:06 35.73783 -115.78799 14849 ft 264 kts 237°
2026-04-26 17:06 35.72753 -115.80671 14841 ft 264 kts 237°
2026-04-26 17:07 35.71728 -115.82536 14833 ft 262 kts 237°
2026-04-26 17:07 35.70707 -115.84391 14841 ft 261 kts 237°
2026-04-26 17:07 35.69689 -115.86239 14861 ft 261 kts 237°
2026-04-26 17:07 35.68338 -115.88693 14855 ft 261 kts 237°
2026-04-26 17:08 35.67319 -115.90543 14825 ft 261 kts 237°
2026-04-26 17:08 35.66630 -115.91791 14846 ft 261 kts 237°
2026-04-26 17:08 35.65610 -115.93637 14841 ft 261 kts 237°
2026-04-26 17:08 35.64591 -115.95479 14838 ft 260 kts 236°
2026-04-26 17:09 35.63434 -115.97193 14846 ft 261 kts 228°
2026-04-26 17:09 35.62577 -115.98227 14847 ft 262 kts 224°
2026-04-26 17:09 35.60709 -116.00170 14843 ft 264 kts 222°
2026-04-26 17:09 35.59279 -116.01590 14849 ft 265 kts 221°
2026-04-26 17:10 35.57841 -116.03012 14846 ft 266 kts 221°
2026-04-26 17:10 35.56415 -116.04421 14844 ft 267 kts 222°
2026-04-26 17:10 35.54967 -116.05856 14846 ft 268 kts 222°
2026-04-26 17:10 35.53516 -116.07295 14836 ft 268 kts 221°
2026-04-26 17:11 35.52069 -116.08731 14849 ft 267 kts 222°
2026-04-26 17:11 35.50622 -116.10170 14832 ft 268 kts 222°
2026-04-26 17:11 35.49173 -116.11610 14849 ft 268 kts 222°
2026-04-26 17:11 35.47726 -116.13049 14820 ft 268 kts 222°
2026-04-26 17:12 35.44840 -116.15919 14839 ft 267 kts 222°
2026-04-26 17:12 35.43396 -116.17354 14815 ft 266 kts 222°
2026-04-26 17:13 35.40527 -116.20205 14826 ft 265 kts 222°
2026-04-26 17:13 35.39096 -116.21626 14845 ft 264 kts 222°
2026-04-26 17:13 35.36232 -116.24471 14850 ft 266 kts 222°
2026-04-26 17:14 35.34791 -116.25900 14824 ft 267 kts 222°
2026-04-26 17:14 35.31905 -116.28760 14842 ft 268 kts 222°
2026-04-26 17:14 35.30458 -116.30195 14851 ft 268 kts 222°
2026-04-26 17:15 35.27542 -116.33082 14832 ft 271 kts 222°
2026-04-26 17:15 35.26078 -116.34530 14838 ft 271 kts 222°
2026-04-26 17:15 35.24614 -116.35977 14853 ft 270 kts 222°
2026-04-26 17:16 35.23151 -116.37424 14859 ft 271 kts 222°
2026-04-26 17:16 35.21683 -116.38873 14835 ft 271 kts 222°
2026-04-26 17:16 35.20216 -116.40320 14856 ft 271 kts 222°
2026-04-26 17:16 35.18752 -116.41766 14835 ft 270 kts 222°
2026-04-26 17:17 35.17294 -116.43204 14858 ft 269 kts 222°
2026-04-26 17:17 35.15841 -116.44637 14851 ft 268 kts 222°
2026-04-26 17:17 35.14391 -116.46065 14839 ft 267 kts 222°
2026-04-26 17:17 35.12946 -116.47488 14843 ft 266 kts 222°
2026-04-26 17:18 35.11506 -116.48906 14847 ft 265 kts 222°
2026-04-26 17:18 35.10071 -116.50318 14859 ft 265 kts 222°
2026-04-26 17:18 35.08637 -116.51729 14842 ft 265 kts 222°
2026-04-26 17:18 35.07203 -116.53139 14855 ft 265 kts 222°
2026-04-26 17:19 35.04348 -116.55945 14846 ft 266 kts 222°
2026-04-26 17:19 35.02883 -116.57383 14867 ft 267 kts 222°
2026-04-26 17:19 35.01432 -116.58808 14849 ft 268 kts 222°
2026-04-26 17:20 34.99978 -116.60234 14856 ft 269 kts 222°
2026-04-26 17:20 34.99011 -116.61182 14875 ft 269 kts 222°
2026-04-26 17:20 34.97061 -116.63094 14874 ft 269 kts 222°
2026-04-26 17:20 34.95599 -116.64525 14866 ft 269 kts 222°
2026-04-26 17:21 34.94140 -116.65954 14886 ft 269 kts 222°
2026-04-26 17:21 34.92686 -116.67375 14880 ft 267 kts 222°
2026-04-26 17:21 34.91264 -116.68765 14870 ft 265 kts 222°
2026-04-26 17:21 34.89835 -116.70161 14881 ft 262 kts 222°
2026-04-26 17:22 34.88417 -116.71547 14880 ft 261 kts 222°
2026-04-26 17:22 34.87008 -116.72924 14879 ft 259 kts 223°
2026-04-26 17:22 34.85598 -116.74301 14900 ft 260 kts 222°
2026-04-26 17:22 34.84190 -116.75675 14883 ft 259 kts 223°
2026-04-26 17:23 34.82779 -116.77053 14902 ft 261 kts 223°
2026-04-26 17:23 34.81361 -116.78436 14882 ft 261 kts 222°
2026-04-26 17:23 34.79949 -116.79812 14889 ft 261 kts 222°
2026-04-26 17:23 34.78521 -116.81204 14901 ft 265 kts 222°
2026-04-26 17:24 34.77069 -116.82619 14896 ft 269 kts 223°
2026-04-26 17:24 34.75605 -116.84045 14881 ft 270 kts 222°
2026-04-26 17:24 34.74130 -116.85479 14875 ft 272 kts 222°
2026-04-26 17:24 34.72655 -116.86912 14859 ft 271 kts 222°
2026-04-26 17:25 34.71189 -116.88337 14834 ft 269 kts 222°
2026-04-26 17:25 34.69735 -116.89748 14800 ft 266 kts 222°
2026-04-26 17:25 34.68296 -116.91144 14761 ft 265 kts 222°
2026-04-26 17:25 34.66858 -116.92540 14742 ft 265 kts 222°
2026-04-26 17:26 34.65419 -116.93936 14728 ft 265 kts 222°
2026-04-26 17:26 34.63977 -116.95335 14697 ft 265 kts 222°
2026-04-26 17:26 34.62533 -116.96734 14676 ft 266 kts 222°
2026-04-26 17:26 34.61086 -116.98136 14663 ft 266 kts 222°
2026-04-26 17:27 34.59636 -116.99541 14611 ft 267 kts 222°
2026-04-26 17:27 34.58176 -117.00955 14517 ft 270 kts 222°
2026-04-26 17:27 34.56701 -117.02383 14393 ft 270 kts 223°
2026-04-26 17:27 34.55241 -117.03796 14292 ft 267 kts 222°
2026-04-26 17:28 34.53798 -117.05188 14184 ft 264 kts 222°
2026-04-26 17:28 34.52364 -117.06570 14061 ft 262 kts 223°
2026-04-26 17:28 34.50941 -117.07944 13938 ft 261 kts 223°
2026-04-26 17:28 34.49526 -117.09308 13842 ft 259 kts 223°
2026-04-26 17:29 34.48106 -117.10681 13616 ft 263 kts 223°
2026-04-26 17:29 34.47158 -117.11597 13448 ft 264 kts 223°
2026-04-26 17:29 34.45223 -117.13464 13108 ft 267 kts 223°
2026-04-26 17:29 34.43775 -117.14859 12844 ft 265 kts 223°
2026-04-26 17:30 34.42340 -117.16239 12614 ft 262 kts 223°
2026-04-26 17:30 34.40926 -117.17599 12342 ft 258 kts 223°
2026-04-26 17:30 34.39528 -117.18942 12086 ft 255 kts 223°
2026-04-26 17:30 34.38150 -117.20266 12013 ft 250 kts 223°
2026-04-26 17:31 34.36781 -117.21585 11947 ft 253 kts 223°
2026-04-26 17:31 34.35395 -117.22919 11964 ft 257 kts 223°
2026-04-26 17:31 34.33991 -117.24271 11958 ft 259 kts 223°
2026-04-26 17:31 34.32582 -117.25624 11966 ft 258 kts 223°
2026-04-26 17:32 34.31192 -117.26957 11965 ft 258 kts 223°
2026-04-26 17:32 34.29790 -117.28301 11962 ft 256 kts 223°
2026-04-26 17:32 34.28425 -117.29605 11991 ft 243 kts 223°
2026-04-26 17:32 34.27112 -117.30859 11980 ft 235 kts 223°
2026-04-26 17:33 34.25856 -117.32063 11982 ft 232 kts 223°
2026-04-26 17:33 34.24598 -117.33269 11982 ft 231 kts 223°
2026-04-26 17:33 34.23338 -117.34480 11969 ft 231 kts 223°
2026-04-26 17:34 34.20810 -117.36899 11982 ft 233 kts 223°
2026-04-26 17:34 34.19541 -117.38114 11974 ft 233 kts 223°
2026-04-26 17:34 34.18274 -117.39325 11981 ft 232 kts 223°
2026-04-26 17:34 34.17008 -117.40535 11987 ft 232 kts 223°
2026-04-26 17:35 34.15746 -117.41741 11988 ft 232 kts 223°
2026-04-26 17:35 34.14477 -117.42955 11935 ft 232 kts 223°
2026-04-26 17:35 34.13216 -117.44158 11960 ft 231 kts 223°
2026-04-26 17:35 34.11955 -117.45361 11967 ft 231 kts 223°
2026-04-26 17:36 34.10690 -117.46567 11981 ft 232 kts 223°
2026-04-26 17:36 34.09422 -117.47775 11983 ft 232 kts 223°
2026-04-26 17:36 34.08199 -117.48972 11959 ft 218 kts 230°
2026-04-26 17:36 34.07296 -117.50354 11829 ft 206 kts 238°
2026-04-26 17:37 34.06655 -117.51855 11612 ft 201 kts 255°
2026-04-26 17:37 34.06258 -117.53470 11434 ft 201 kts 255°
2026-04-26 17:37 34.05852 -117.55075 11070 ft 200 kts 255°
2026-04-26 17:38 34.05021 -117.58303 10138 ft 203 kts 255°
2026-04-26 17:38 34.04601 -117.59907 9635 ft 198 kts 255°
2026-04-26 17:38 34.04188 -117.61477 9022 ft 196 kts 254°
2026-04-26 17:38 34.03773 -117.63045 8411 ft 196 kts 254°
2026-04-26 17:39 34.03358 -117.64605 7817 ft 196 kts 253°
2026-04-26 17:39 34.02940 -117.66175 7199 ft 198 kts 253°
2026-04-26 17:39 34.02517 -117.67759 6640 ft 199 kts 253°
2026-04-26 17:39 34.02093 -117.69352 6045 ft 200 kts 254°
2026-04-26 17:40 34.01829 -117.70995 5406 ft 200 kts 263°
2026-04-26 17:40 34.01777 -117.71535 5217 ft 200 kts 264°
2026-04-26 17:40 34.01529 -117.74295 4227 ft 195 kts 263°
2026-04-26 17:40 34.01377 -117.75919 3653 ft 193 kts 263°
2026-04-26 17:41 34.01235 -117.77470 3388 ft 179 kts 263°
2026-04-26 17:41 34.01108 -117.78925 3355 ft 172 kts 263°
2026-04-26 17:41 34.00986 -117.80395 3424 ft 181 kts 263°
2026-04-26 17:41 34.00857 -117.81925 3426 ft 185 kts 263°
2026-04-26 17:42 34.00730 -117.83462 3420 ft 184 kts 263°
2026-04-26 17:42 34.00608 -117.84970 3418 ft 183 kts 263°
2026-04-26 17:42 34.00474 -117.86519 3423 ft 184 kts 263°
2026-04-26 17:42 34.00346 -117.88028 3409 ft 183 kts 263°
2026-04-26 17:43 34.00219 -117.89533 3399 ft 177 kts 263°
2026-04-26 17:43 34.00057 -117.90969 3425 ft 171 kts 261°
2026-04-26 17:43 33.99877 -117.92406 3433 ft 175 kts 261°
2026-04-26 17:43 33.99714 -117.93872 3428 ft 177 kts 262°
2026-04-26 17:44 33.99563 -117.95348 3424 ft 179 kts 262°
2026-04-26 17:44 33.99416 -117.96864 3205 ft 184 kts 262°
2026-04-26 17:44 33.99274 -117.98379 2940 ft 179 kts 262°
2026-04-26 17:44 33.99121 -117.99849 2686 ft 174 kts 262°
2026-04-26 17:45 33.98962 -118.01272 2435 ft 169 kts 262°
2026-04-26 17:45 33.98805 -118.02672 2180 ft 168 kts 261°
2026-04-26 17:45 33.98651 -118.04048 2092 ft 166 kts 262°
2026-04-26 17:45 33.98496 -118.05462 2030 ft 173 kts 262°
2026-04-26 17:46 33.98356 -118.06930 1997 ft 179 kts 263°
2026-04-26 17:46 33.98219 -118.08389 1992 ft 171 kts 264°
2026-04-26 17:46 33.98088 -118.09777 1995 ft 164 kts 264°
2026-04-26 17:46 33.97960 -118.11140 2008 ft 166 kts 264°
2026-04-26 17:47 33.97820 -118.12567 2007 ft 175 kts 262°
2026-04-26 17:47 33.97769 -118.13060 2007 ft 175 kts 263°
2026-04-26 17:47 33.97519 -118.15457 1991 ft 172 kts 263°
2026-04-26 17:47 33.97372 -118.16879 2000 ft 171 kts 262°
2026-04-26 17:48 33.97224 -118.18301 1901 ft 173 kts 262°
2026-04-26 17:48 33.97071 -118.19748 1645 ft 171 kts 262°
2026-04-26 17:48 33.96928 -118.21108 1574 ft 161 kts 262°
2026-04-26 17:48 33.96793 -118.22412 1528 ft 156 kts 263°
2026-04-26 17:49 33.96654 -118.23721 1506 ft 154 kts 263°
2026-04-26 17:49 33.96519 -118.24991 1498 ft 153 kts 263°
2026-04-26 17:49 33.96401 -118.26281 1401 ft 158 kts 264°
2026-04-26 17:49 33.96277 -118.27577 1283 ft 149 kts 264°
2026-04-26 17:50 33.96160 -118.28777 1219 ft 141 kts 264°
2026-04-26 17:50 33.96056 -118.29942 1164 ft 141 kts 264°
2026-04-26 17:50 33.95941 -118.31143 981 ft 146 kts 264°
2026-04-26 17:50 33.95815 -118.32346 850 ft 142 kts 262°
2026-04-26 17:51 33.95658 -118.33515 693 ft 143 kts 262°
2026-04-26 17:51 33.95530 -118.34695 602 ft 141 kts 264°
2026-04-26 17:51 33.95421 -118.35856 476 ft 141 kts 264°
2026-04-26 17:51 33.95324 -118.37005 439 ft 137 kts 263°
2026-04-26 17:52 33.95213 -118.38153 401 ft 140 kts 262°
2026-04-26 17:52 33.95097 -118.39324 260 ft 139 kts 262°
2026-04-26 17:52 33.94989 -118.40464 149 ft 137 kts 263°
2026-04-26 17:52 33.94895 -118.41387 129 ft 47 kts 264°
2026-04-26 17:53 33.94885 -118.41480 129 ft 3 kts 263°
2026-04-26 17:53 33.94866 -118.41658 128 ft 33 kts 263°
2026-04-26 17:53 33.94826 -118.41833 127 ft 26 kts 241°
2026-04-26 17:54 33.94750 -118.41917 126 ft 7 kts 186°
2026-04-26 17:54 33.94725 -118.41833 126 ft 23 kts 85°
2026-04-26 17:54 33.94752 -118.41590 129 ft 35 kts 83°
2026-04-26 17:54 33.94779 -118.41393 128 ft 34 kts 82°
2026-04-26 17:55 33.94752 -118.41250 127 ft 16 kts 159°
2026-04-26 17:55 33.94641 -118.41271 127 ft 22 kts 183°
2026-04-26 17:55 33.94522 -118.41254 127 ft 2 kts 147°
2026-04-26 17:55 33.94524 -118.41190 126 ft 15 kts 89°
2026-04-26 17:56 33.94522 -118.41161 127 ft 0 kts 97°